www.pogodaiklimat.ru

Погода и климат >> Архив погоды >> Индонезия >> Аэропорт Ахмад Яни


ПОГОДА в Аэропорту Ахмад Яни

  • Прогноз погоды в Аэропорту Ахмад Яни
  • Монитор погоды в Аэропорту Ахмад Яни

АРХИВ ПОГОДЫ в Аэропорту Ахмад Яни

Время (UTC), дата Ветер
(напр.,м/с)
 
Видим.   Явления Облачность Т
(С)
Тd
(С)
f
(%)
Тe
(С)
Тes
(С)
Комфортность P
(гПа)
Po
(гПа)
Тmin
(С)
Tmax
(С)
R
(мм)
R24
(мм)
S
(см)
00 9.09 ЮВ 2 5000 м мгла 5/3 420 м
[Sc Ac trans Ci fib]
+25.4 +20.6 75 +32 +33 очень
душно
1014.3 1013.9 +23.6
03 9.09 В 4 7000 м 4/1 420 м
[Cu hum Ac trans Ci fib]
+31.4 +20.4 52 +38 +47 очень
душно
1013.5 1013.2
06 9.09 В 5 8000 м 4/3 420 м
[Cu hum Ac trans Ci fib]
+34.6 +16.9 35 +38 +44 очень
душно
1010.2 1009.9
09 9.09 С 6 8000 м 4/1 420 м
[Cu hum Ac trans Ci fib]
+30.2 +22.6 64 +40 +41 очень
душно
1010.0 1009.6
12 9.09 З 2 7000 м 4/1 420 м
[Sc Ac trans Ci fib]
+28.8 +22.1 67 +37 +37 очень
душно
1011.6 1011.2 +34.8
15 9.09 В 4 6000 м 8/3 420 м
[Sc Ac trans Ci fib]
+27.8 +21.3 68 +35 +35 очень
душно
1013.3 1012.9
18 9.09 ЮВ 5 6000 м 5/3 420 м
[Sc Ac trans Ci fib]
+27.6 +16.9 52 +31 +31 душно 1012.4 1012.1
21 9.09 В 3 6000 м 5/3 420 м
[Sc Ac trans Ci fib]
+24.4 +15.6 58 +27 +27 жарко 1012.2 1011.8
00 10.09 ЮВ 4 8000 м 3/1 450 м
[Sc Ac trans Ci fib]
+29.2 +12.3 35 +30 +31 жарко 1013.7 1013.3 +23.4
03 10.09 ЮВ 8 8000 м 3/1 450 м
[Sc Ac trans Ci fib]
+33.2 +13.2 30 +34 +36 очень
жарко
1014.3 1013.9
06 10.09 ЮВ 7 8000 м 3/1 450 м
[Cu hum Ac trans Ci fib]
+35.4 +14.1 28 +36 +41 очень
жарко
1011.0 1010.6
09 10.09 СЗ 5 8000 м 3/1 450 м
[Cu hum Ac trans Ci fib]
+32.2 +20.5 50 +39 +41 очень
душно
1010.0 1009.7
12 10.09 В 2 7000 м 5/3 450 м
[Sc Ac trans Ci sp]
+30.0 +19.7 54 +36 +36 очень
душно
1012.5 1012.2 +36.4
15 10.09 штиль 0 6000 м 6/1 450 м
[Sc Ac trans Ci sp]
+28.6 +19.2 57 +34 +34 очень
душно
1014.4 1014.1
18 10.09 Ю 1 6000 м 5/1 450 м
[Sc Ac trans Ci sp]
+26.0 +19.2 66 +31 +31 очень
душно
1013.6 1013.3
21 10.09 Ю 1 6000 м 6/1 450 м
[Sc Ac trans Ci sp]
+24.2 +17.9 68 +28 +28 душно 1013.2 1012.8
00 11.09 Ю 2 6000 м 5/1 450 м
[Sc Ac trans Ci sp]
+24.2 +18.2 69 +29 +30 душно 1014.9 1014.6 +22.2
03 11.09 ЮВ 4 8000 м 4/1 450 м
[Sc Ac trans Ci sp]
+31.6 +17.5 43 +36 +44 очень
душно
1014.6 1014.3
06 11.09 С 6 8000 м 4/1 420 м
[Cu hum Ac trans Ci sp]
+33.3 +17.0 38 +37 +43 очень
душно
1011.2 1010.9
09 11.09 СЗ 6 8000 м 4/1 420 м
[Cu hum Ac trans Ci sp]
+29.6 +22.3 65 +39 +40 очень
душно
1010.6 1010.2
12 11.09 СЗ 3 7000 м 6/3 450 м
[Sc Ac trans Ci sp]
+28.2 +23.3 75 +38 +38 очень
душно
1012.5 1012.1 +34.4
15 11.09 З 1 6000 м 8/3 420 м
[Sc Ac trans Ci sp]
+27.8 +23.6 78 +38 +38 очень
душно
1014.5 1014.2
18 11.09 Ю 2 6000 м 8/3 420 м
[Sc Ac trans Ci sp]
+26.8 +23.1 80 +36 +36 очень
душно
1013.3 1012.9
21 11.09 штиль 0 6000 м 5/1 450 м
[Sc Ac trans Ci sp]
+25.0 +20.7 77 +31 +31 очень
душно
1013.3 1012.9
00 12.09 Ю 2 6000 м 5/1 450 м
[Sc Ac trans Ci sp]
+24.2 +16.7 63 +28 +30 душно 1015.7 1015.2 +22.5
03 12.09 В 3 8000 м 6/1 450 м
[Sc Ac trans Ci sp]
+31.5 +18.8 47 +37 +46 очень
душно
1015.2 1014.9
06 12.09 В 5 8000 м 5/1 450 м
[Cu hum Ac trans Ci sp]
+33.7 +9.0 22 +32 +39 жарко 1011.6 1011.3
09 12.09 С 9 8000 м 4/1 420 м
[Cu hum Ac trans Ci sp]
+29.7 +19.4 54 +35 +36 очень
душно
1010.7 1010.4
12 12.09 З 2 7000 м 8/3 420 м
[Cu hum Ac trans Ci sp]
+27.4 +18.4 58 +32 +32 очень
душно
1012.7 1012.3 +35.1
15 12.09 ЮВ 2 7000 м 8/3 420 м
[Sc Ac trans Ci sp]
+25.8 +13.6 47 +28 +28 жарко 1014.1 1013.7
18 12.09 ЮВ 2 6000 м 8/3 420 м
[Sc Ac trans Ci sp]
+23.9 +13.2 51 +26 +26 жарко 1013.6 1013.2
21 12.09 ЮВ 2 6000 м 8/3 420 м
[Sc Ac trans Ci sp]
+22.5 +13.6 57 +26 +26 жарко 1013.7 1013.4
00 13.09 В 2 5000 м мгла 6/1 420 м
[Sc Ac trans Ci sp]
+23.8 +14.5 56 +26 +28 жарко 1014.5 1014.1 +22.0
03 13.09 В 4 6000 м 5/1 420 м
[Cu hum Ac trans Ci sp]
+31.0 +10.9 29 +31 +39 жарко 1014.4 1014.0
06 13.09 СВ 6 8000 м 4/1 420 м
[Cu hum Ac trans Ci fib]
+33.3 +12.9 29 +34 +39 очень
жарко
1011.1 1010.7
09 13.09 СЗ 6 8000 м 4/1 420 м
[Cu hum Ac trans Ci fib]
+29.8 +19.5 54 +36 +37 очень
душно
1011.0 1010.6
12 13.09 С 3 6000 м 5/3 420 м
[Cu hum Ac trans Ci sp]
+27.7 +19.8 62 +34 +34 очень
душно
1012.8 1012.4 +33.4
15 13.09 ЮВ 2 6000 м 5/3 420 м
[Cu hum Ac trans Ci sp]
+26.8 +18.9 62 +32 +32 очень
душно
1014.5 1014.2
18 13.09 Ю 2 6000 м 6/4 420 м
[Cu hum Ac trans Ci sp]
+25.2 +19.7 72 +31 +31 очень
душно
1013.3 1012.9
21 13.09 ЮВ 2 6000 м 6/3 420 м
[Sc Ac trans Ci sp]
+23.6 +18.3 72 +28 +28 душно 1012.9 1012.5
00 14.09 ЮВ 2 5000 м мгла 4/3 420 м
[Sc Ac trans Ci fib]
+24.3 +18.9 72 +29 +31 душно 1014.4 1014.0 +22.4
03 14.09 В 7 7000 м 3/1 420 м
[Sc Ac trans Ci fib]
+30.8 +17.5 45 +35 +39 очень
душно
1014.2 1013.9
06 14.09 С 6 8000 м 4/3 420 м
[Cu med, cong Ac trans Ci fib]
+32.0 +18.9 46 +37 +42 очень
душно
1011.4 1011.1
09 14.09 СЗ 6 8000 м 4/3 420 м
[Cu med, cong Ac trans Ci fib]
+29.5 +21.4 62 +37 +39 очень
душно
1010.5 1010.1
12 14.09 СЗ 3 7000 м 6/3 420 м
[Cu med, cong Ac trans Ci fib]
+28.0 +21.8 69 +36 +36 очень
душно
1012.2 1011.8 +32.2
15 14.09 Ю 2 7000 м 8/4 420 м
[Cu med, cong Ac trans Ci sp]
+27.2 +21.2 70 +34 +34 очень
душно
1013.1 1012.7
18 14.09 Ю 2 7000 м 9/5 420 м
[Cu med, cong Ac trans Ci sp]
+26.6 +21.4 73 +34 +34 очень
душно
1011.8 1011.4
21 14.09 Ю 2 7000 м 9/4 420 м
[Cu hum Ac trans Ci sp]
+25.1 +21.0 78 +32 +32 очень
душно
1011.6 1011.2
00 15.09 ЮВ 3 7000 м 8/3 420 м
[Sc Ac trans Ci fib]
+26.8 +20.4 68 +33 +34 очень
душно
1012.8 1012.5 +22.0
03 15.09 В 5 7000 м 9/3 420 м
[Cu hum Ac trans Ci fib]
+29.5 +19.8 56 +36 +40 очень
душно
1012.7 1012.3
06 15.09 СВ 4 8000 м 8/3 420 м
[Cu hum Ac trans Ci sp]
+33.4 +19.1 43 +39 +44 очень
душно
1009.2 1008.9
09 15.09 С 5 8000 м 8/3 420 м
[Cu hum Ac trans Ci sp]
+30.2 +22.4 63 +39 +40 очень
душно
1008.2 1007.8
12 15.09 З 3 7000 м 8/3 420 м
[Cu hum Ac trans Ci fib]
+29.4 +24.5 75 +42 +42 опасность
перегрева
1010.2 1009.8 +34.0
15 15.09 В 3 4000 м слаб. дождь 9/5 400 м
[Sc Ac trans Ci sp]
+26.4 +24.2 88 +37 +37 очень
душно
1011.8 1011.4 4
18 15.09 ЮВ 3 6000 м {дождь} 8/3 420 м
[Sc Ac trans Ci sp]
+26.2 +22.5 80 +34 +34 очень
душно
1010.8 1010.4 1
21 15.09 ЮВ 4 6000 м 6/3 420 м
[Sc Ac trans Ci fib]
+25.8 +21.0 75 +32 +32 очень
душно
1011.0 1010.6

 

Местоположение метеостанции Аэропорт Ахмад Яни (Индонезия): широта -6.98 долгота 110.38 высота над уровнем моря 3 м.

В архиве по умолчанию представлена погода в Аэропорту Ахмад Яни за последнюю неделю. Архивные данные за месяц целиком и за предыдущие месяцы, начиная с января 2011 года, Вы можете получить, выбрав интересующий диапазон дат из раскрывающегося списка и нажав кнопку "Ввод!".


*Определитесь, кто Вы:
робот инопланетянин человек

Внимание! Время в таблицах - всемирное. Для получения местного времени необходимо прибавить поправку, которая равна 7 ч.

Смотрите также архив погоды в соседних городах и на ближайших метеорологических станциях:

Погода в Семаранге (Индонезия) (3 км)
Погода в Тегале (Индонезия) (137 км)
Погода в Чилачапе (Индонезия) (173 км)
Погода в Сиребоне (Индонезия) (236 км)
Погода в Сурабая Перак (Индонезия) (259 км)
Погода в Аэропорту Джуанда (Индонезия) (266 км)
Погода в Сангкапуре (Индонезия) (279 км)
Погода в Бандунге (Индонезия) (309 км)
Погода в Сурабая Геданган (Индонезия) (369 км)
Погода в Цитеко (Индонезия) (382 км)

Пояснения к столбцам:

Ветер - указаны скорость ветра в м/с - средняя за 10 мин, порывы в срок и между сроками (в фигурных скобках) и направление, откуда дует ветер: С - северный, СВ - северо-восточный, В - восточный, ЮВ - юго-восточный, Ю - южный, ЮЗ - юго-западный, З - западный, СЗ - северо-западный.
Видимость - горизонтальная дальность видимости в метрах или километрах. При видимости от 1 до 10 км при отсутствии осадков обычно наблюдается дымка, при ухудшении видимости до 1 км и менее - туман. В сухую погоду видимость может ухудшаться дымом, пылью или мглою.
Явления - указаны атмосферные явления, наблюдавшиеся в срок или в последний час перед сроком; фигурными скобками обозначены явления, наблюдавшиеся между сроками (за 1-3 часа до срока); квадратными скобками обозначены град или гололедные отложения с указанием их диаметра в мм.
Облачность - указаны через наклонную черту общая и нижняя облачность в баллах и высота нижней границы облаков в метрах; квадратными скобками обозначены формы облаков: Ci - перистые, Cs - перисто-слоистые, Cc - перисто-кучевые, Ac - высококучевые, As - высокослоистые, Sc - слоисто-кучевые, Ns - слоисто-дождевые, Cu - кучевые, Cb - кучево-дождевые. Подробнее классификацию облаков см. в Атласе облаков (PDF).
T - Температура воздуха - температура, измеренная на высоте 2 м над землей.
Td - Температура точки росы - температура, при понижении до которой содержащийся в воздухе водяной пар достигнет насыщения.
f - Относительная влажность воздуха - влажноcть воздуха, измеренная на высоте 2 м над землей.
Te - Эффективная температура - температура, которую ощущает одетый по сезону человек в тени. Характеристика душности погоды. При расчете учитывается влияние влажности воздуха и скорости ветра на теплоощущения человека.
Tes - Эффективная температура на солнце - температура, которую ощущает человек, с поправкой на солнечный нагрев. Характеристика знойности погоды. Зависит от высоты солнца над горизонтом, облачности и скорости ветра. Ночью, в пасмурную погоду, а также при ветре 12 м/с и более поправка равна нулю.
P - Атмосферное давление - приведенное к уровню моря атмосферное давление.
Po - Атмосферное давление - измеренное на уровне метеостанции атмосферное давление.
Tmin - Минимальная температура - минимум температуры воздуха на высоте 2 м над землей.
Tmax - Максимальная температура - максимум температуры воздуха на высоте 2 м над землей.
R - Количество осадков - Количество выпавших осадков за период времени, мм. При наведении курсора мыши на число - период времени, за который выпало указанное количество осадков.
R24 - Количество осадков - Количество выпавших осадков за 24 часа, мм.
S - Снежный покров - Высота снежного покрова, см. При наведении курсора мыши на число - состояние снежного покрова и степень покрытия местности в баллах.